Location: Newark
(42.1667°N, 14.5667°E)
Time: 20:51:38
(UTC+00:00)

Envisat - Pass Details

Date: 29 January 2020
Orbit: 764 x 766 km, 98.1° (Epoch: 22 February)

Event Time Altitude Azimuth Distance (km) Brightness Sun altitude
Rises 05:23:13 0° 17° (NNE) 3,241 6.3 -10.5°
Reaches altitude 10° 05:25:36 10° 22° (NNE) 2,310 5.6 -10.1°
Maximum altitude 05:30:35 54° 100° (E) 923 3.9 -9.2°
Drops below altitude 10° 05:35:32 10° 178° (S) 2,293 5.7 -8.3°
Sets 05:37:52 0° 182° (S) 3,214 6.4 -7.9°
